Home   Weather   Munich   Past weeks

Flag for Germany Past Weather in Munich, Bavaria, Germany — Yesterday and Last 2 Weeks

Now
23 °F

Passing clouds.


Feels Like: 23 °F
Forecast: 24 / 44 °F
Wind: 2 mph from East

Location: Munich / Franz Josef Strauss Airport

Current Time: Dec 8, 2016 at 7:10:07 am

Latest Report: Dec 8, 2016 at 6:50 am


Visibility: 1 mi

Pressure: 30.54 "Hg (28.56 "Hg at 526m altitude)

Humidity: 100%

Dew Point: 23 °F

Location of MunichLocation

Past Weather in Munich — Graph

°F

Munich Temperature Yesterday

Maximum temperature yesterday: 28 °F (at 10:50 am)
Minimum temperature yesterday: 25 °F (at 11:50 pm)
Average temperature yesterday: 27 °F

High & Low Weather Summary for the Past Weeks

 TemperatureHumidityPressure
High54 °F (Nov 23, 1:20 pm)100% (Nov 23, 5:20 am)30.60 "Hg (Nov 23, 5:20 am)
Low14 °F (Nov 30, 5:20 am)36% (Dec 1, 2:50 pm)29.98 "Hg (Nov 27, 2:20 pm)
Average33 °F92%30.25 "Hg
* Reported Nov 23 5:20 am — Dec 8 5:50 am, Munich, Weather by CustomWeather, © 2016

Note: Actual official high and low records may vary slightly from our data, if they occured in-between our weather recording intervals... More about our weather records

Advertising

Munich Weather History for the Previous 24 Hours

Scroll right to see more
 ConditionsComfort  
Time TempWeatherWind HumidityBarometerVisibility
5:50 am
Thu, Dec 8
25 °FIce fog.1 mph100%30.57 "Hg1 mi
5:20 am25 °FIce fog.2 mph100%30.57 "Hg1 mi
4:50 am25 °FIce fog.1 mph100%30.57 "Hg1 mi
4:20 am25 °FIce fog.1 mph100%30.57 "Hg1 mi
3:50 am25 °FIce fog.2 mph100%30.57 "Hg1 mi
3:20 am25 °FIce fog.3 mph100%30.57 "Hg1 mi
2:50 am25 °FIce fog.3 mph100%30.57 "Hg1 mi
2:20 am25 °FIce fog.1 mph100%30.57 "Hg1 mi
1:50 am27 °FIce fog.2 mph100%30.57 "Hg1 mi
1:20 am25 °FIce fog.2 mph100%30.57 "Hg1 mi
12:50 am25 °FIce fog.3 mph100%30.57 "Hg1 mi
12:20 am25 °FIce fog.2 mph100%30.60 "Hg1 mi
11:50 pm
Wed, Dec 7
25 °FIce fog.1 mph100%30.60 "Hg1 mi
11:20 pm27 °FIce fog.3 mph100%30.57 "Hg1 mi
10:50 pm27 °FIce fog.2 mph100%30.57 "Hg1 mi
10:20 pm27 °FIce fog.2 mph100%30.57 "Hg1 mi
9:50 pm27 °FIce fog.2 mph100%30.57 "Hg1 mi
9:20 pm27 °FIce fog.2 mph100%30.57 "Hg1 mi
8:50 pm27 °FIce fog.3 mph100%30.57 "Hg1 mi
8:20 pm27 °FMostly cloudy.3 mph100%30.57 "Hg1 mi
7:50 pm27 °FIce fog.2 mph100%30.57 "Hg1 mi
7:20 pm27 °FMostly cloudy.2 mph100%30.57 "Hg1 mi
6:50 pm27 °FMostly cloudy.2 mph100%30.57 "Hg1 mi
6:20 pm27 °FMostly cloudy.3 mph100%30.57 "Hg1 mi
5:50 pm27 °FSnow. Overcast.3 mph100%30.54 "Hg1 mi
5:20 pm28 °FSnow. Overcast.6 mph100%30.54 "Hg1 mi
4:50 pm28 °FSnow. Overcast.6 mph100%30.54 "Hg1 mi
4:20 pm28 °FSnow. Overcast.3 mph100%30.54 "Hg1 mi
3:20 pm28 °FSleet. Cloudy.5 mph100%30.54 "Hg1 mi
2:50 pm28 °FSnow. Cloudy.5 mph100%30.54 "Hg1 mi
2:20 pm28 °FSnow. Cloudy.5 mph100%30.54 "Hg1 mi
1:50 pm28 °FSnow. Cloudy.5 mph100%30.54 "Hg1 mi
1:20 pm28 °FSnow. Cloudy.3 mph100%30.54 "Hg1 mi
12:50 pm28 °FSnow. Cloudy.5 mph100%30.54 "Hg1 mi
12:20 pm28 °FSnow. Cloudy.5 mph100%30.54 "Hg1 mi
11:50 am28 °FSleet. Cloudy.5 mph100%30.54 "Hg2 mi
11:20 am28 °FIce fog.5 mph100%30.57 "Hg2 mi
10:50 am28 °FIce fog.5 mph100%30.57 "Hg2 mi
10:20 am27 °FIce fog.3 mph100%30.57 "Hg2 mi
9:50 am27 °FIce fog.3 mph100%30.57 "Hg2 mi
9:20 am27 °FIce fog.5 mph100%30.57 "Hg1 mi
8:50 am27 °FIce fog.5 mph100%30.57 "Hg1 mi
8:20 am27 °FPartly sunny.5 mph100%30.57 "Hg1 mi
7:50 am27 °FCloudy.6 mph100%30.54 "Hg1 mi
7:20 am27 °FIce fog.5 mph100%30.54 "Hg1 mi
Weather by CustomWeather, © 2016

See weather overviewHow to use our weather pages